User: anonymous   Login
Location: Newark
(47.5500°N, 8.6167°E)
Time: 01:34:59
(UTC+00:00)
Language:

NOAA 19 - Orbit

View from above orbital plane
View from above orbital plane
View from above satellite
View from above satellite

Ground track
Ground track

The orbit data is extracted from the following two-line orbital elements,

1 33591U 09005A   20093.36789141  .00000051  00000-0  52958-4 0  9997
2 33591  99.1971  96.7322 0013008 290.7713  69.2064 14.12400904574658
Epoch (UTC): 02 April 2020 08:49:45
Eccentricity: 0.0013008
inclination: 99.1971°
perigee height: 842 km
apogee height: 860 km
right ascension of ascending node: 96.7322°
argument of perigee: 290.7713°
revolutions per day: 14.12400904
mean anomaly at epoch: 69.2064°
orbit number at epoch: 57465

The dashed part of the orbit path shows where the satellite is in the earth's shadow,  

DLR